Hourly Data Report for October 02, 2016

All times are specified in Local Standard Time (LST). Add 1 hour to adjust for Daylight Saving Time where and when it is observed.

RESOLUTE BAY A
NUNAVUT

74°43'01.000" N
94°58'10.000" W
67.70 m
2403498
71924
YRB

Download Data

Hourly Data (October 2016)
Hourly Data Report for October 2, 2016
Temp Definition
°C
Dew Point Temp Definition
°C
Rel Hum Definition
%
Wind Dir Definition
10's deg

Wind Spd Definition
km/h
Visibility Definition
km
Stn Press Definition
kPa
Hmdx Definition


Wind Chill Definition


Weather Definition


TIME
00:00 Legend Double Dagger -5.3 -6.8 89 29 38 24.1 101.03   -14 Cloudy
01:00 Legend Double Dagger -5.0 -6.5 89 30 37 24.1 100.98   -14 LegendNANA
02:00 Legend Double Dagger -4.9 -6.6 88 29 33 24.1 100.93   -13 LegendNANA
03:00 Legend Double Dagger -4.7 -6.5 87 29 41 24.1 100.81   -14 Snow
04:00 Legend Double Dagger -4.6 -6.0 90 29 33 9.7 100.73   -13 Snow,Blowing Snow
05:00 Legend Double Dagger -4.0 -5.1 92 27 44 11.3 100.56   -13 Snow,Blowing Snow
06:00 Legend Double Dagger -4.2 -5.3 92 27 37 14.5 100.43   -13 Snow,Blowing Snow
07:00 Legend Double Dagger -4.6 -5.7 92 25 45 0.4 100.26   -14 Snow,Blowing Snow
08:00 Legend Double Dagger -4.9 -6.2 91 25 46 0.6 100.09   -14 Snow,Blowing Snow
09:00 Legend Double Dagger -4.4 -5.8 90 25 46 1.6 99.85   -14 Snow,Blowing Snow
10:00 Legend Double Dagger -3.9 -4.9 93 26 49 0.4 99.64   -13 Snow,Blowing Snow
11:00 Legend Double Dagger -3.6 -4.6 93 26 58 0.4 99.50   -14 Snow,Blowing Snow
12:00 Legend Double Dagger -3.3 -4.1 94 27 55 0.4 99.39   -13 Snow,Blowing Snow
13:00 Legend Double Dagger -2.9 -3.7 94 27 46 0.6 99.28   -12 Snow,Blowing Snow
14:00 Legend Double Dagger -2.6 -3.3 95 27 47 0.6 99.22   -11 Snow,Blowing Snow
15:00 Legend Double Dagger -2.2 -2.8 96 28 40 0.8 99.16   -10 Snow,Blowing Snow
16:00 Legend Double Dagger -2.5 -3.2 95 31 40 6.4 99.15   -11 Snow,Blowing Snow
17:00 Legend Double Dagger -4.2 -5.9 88 32 45 24.1 99.20   -13 Blowing Snow
18:00 Legend Double Dagger -5.7 -7.5 87 31 35 24.1 99.25   -14 Cloudy
19:00 Legend Double Dagger -4.8 -6.2 90 31 36 24.1 99.28   -13 Freezing Drizzle
20:00 Legend Double Dagger -4.6 -6.1 89 32 35 24.1 99.28   -13 LegendNANA
21:00 Legend Double Dagger -5.4 -6.9 89 33 31 24.1 99.36   -14 Mainly Clear
22:00 Legend Double Dagger -6.3 -8.0 88 34 39 24.1 99.41   -16 LegendNANA
23:00 Legend Double Dagger -5.4 -7.2 87 35 37 24.1 99.45   -14 LegendNANA

Notes on Data Quality.

Legend

  • E = Estimated
  • M = Missing
  • NA = Not Available
  • ‡ = Partner data that is not subject to review by the National Climate Archives
Date modified: